SCP
0 0 0 0 0 0 0 -0 -0 -0 0 0 0 0 0 0 0 0 0 0 0 0 0 0 0 0 0 0 0 0 0 0 0 0 0 0 0 0 0 0 0 0 0
0 0 0 0 0 0 0 0 -0 -0 0 0 0 0 0 0 0 0 0 0 0 0 0 0 0 0 0 0 0 0 0 0 0 0 0 0 0 0 0 0 0 0 0
0 0 0 0 0 0 0 0 0 0 0 0 0 0 0 0 0 0 0 0 0 0 0 0 0 0 0 0 0 0 0 0 0 0 0 0 0 0 0 0 0 0 0
0 0 0 0 0 0 0 0 0 0 0 0 0 0 0 0 0 0 0 0 0 0 0 0 0 0 0 0 0 0 0 0 0 0 0 0 0 0 0 0 0 0 0
0 0 0 0 0 0 0 0 0 0 0 0 0 0 0 0 0 0 0 0 0 0 0 0 0 0 0 0 0 0 0 0 0 0 0 0 0 0 0 0 0 0 0
0 0 0 0 0 0 0 0 0 0 0 0 0 0 0 0 0 0 0 0 0 0 0 0 0 0 0 0 0 0 0 0 0 0 0 0 0 0 0 0 0 0 0
0 0 0 0 0 0 0 0 0 0 0 0 0 0 0 0 0 0 0 0 0 0 0 0 0 0 0 0 0 0 0 0 0 0 0 0 0 0 0 0 0 0 0
0 0 0 0 0 0 0 0 0 0 0 0 0 0 0 0 0 0 0 0 0 0 0 0 0 0 0 0 0 0 0 0 0 0 0 0 0 0 0 0 0 0 0
0 0 0 0 0 0 0 0 0 0 0 0 0 0 0 0 0 0 0 0 0 0 0 0 0 0 0 0 0 0 0 0 0 0 0 0 0 0 0 0 0 0 0
0 0 0 0 0 0 0 0 0 0 0 0 0 0 0 0 0 0 0 0 0 0 0 0 0 0 0 0 0 0 0 0 0 0 0 0 0 0 0 0 0 0 0
0 0 0 0 0 0 0 0 0 0 0 0 0 0 0 0 0 0 0 0 0 0 0 0 0 0 0 0 0 0 0 0 0 0 0 0 0 0 0 0 0 0 0
0 0 0 0 0 0 0 0 0 0 0 0 0 0 0 0 0 0 0 0 0 0 0 0 0 0 0 0 0 0 0 0 0 0 0 0 0 0 0 0 0 0 0
0 0 0 0 0 0 0 0 0 0 0 0 0 0 0 0 0 0 0 0 0 0 0 0 0 0 0 0 0 0 0 0 0 0 0 0 0 0 0 0 0 0 0
0 0 0 0 0 0 0 0 0 0 0 0 0 0 0 0 0 0 0 0 0 0 0 0 0 0 0 0 0 0 0 0 0 0 0 0 0 0 0 0 0 0 0
0 0 0 0 0 0 0 0 0 0 0 0 0 0 0 0 0 0 0 0 0 0 0 0 0 0 0 0 0 0 0 0 0 0 0 0 0 0 0 0 0 0 0
0 0 0 0 0 0 0 0 0 0 0 0 0 0 0 0 0 0 0 0 0 0 0 0 0 0 0 0 0 0 0 0 0 0 0 0 0 0 0 0 0 0 0
0 0 0 0 0 0 0 0 0 0 0 0 0 0 0 0 0 0 0 0 0 0 0 0 0 0 0 0 0 0 0 0 0 0 0 0 0 0 0 0 0 0 0
0 0 0 0 0 0 0 0 0 0 0 0 0 0 0 0 0 0 0 0 0 0 0 0 0 0 0 0 0 0 0 0 0 0 0 0 0 0 0 0 0 0 0
0 0 0 0 0 0 0 0 0 0 0 0 0 0 0 0 0 0 0 0 0 0 0 0 0 0 0 0 0 0 0 0 0 0 0 0 0 0 0 0 0 0 0
0 0 0 0 0 0 0 0 0 0 0 0 0 0 0 0 0 0 0 0 0 0 0 0 0 0 0 0 0 0 0 0 0 0 0 0 0 0 0 0 0 0 0
-0 -0 0 0 0 0 0 0 0 0 0 0 0 0 0 0 0 0 0 0 0 0 0 0 0 0 0 0 0 0 0 0 0 0 0 0 0 0 0 0 0 0 0
-0 -0 -0 -0 0 0 0 0 0 0 0 0 0 0 0 0 0 0 0 0 0 0 0 0 0 0 0 0 0 0 0 0 0 0 0 0 0 0 0 0 0 0 0
-0 -0 -0 0 0 0 0 0 0 0 0 0 0 0 0 0 0 0 0 0 0 0 0 0 0 0 0 0 0 0 0 0 0 0 0 0 0 0 0 0 0 0 0
0 -0 -0 0 0 0 0 0 0 0 0 0 0 0 0 0 0 0 0 0 0 0 0 0 0 0 0 0 0 0 0 0 0 0 0 0 0 0 0 0 0 0 0
0 0 0 0 0 0 0 0 0 0 0 0 0 0 0 0 0 0 0 0 0 0 0 0 0 0 0 0 0 0 0 0 0 0 0 0 0 0 0 0 0 0 0
0 0 0 0 0 0 0 0 0 0 0 0 0 0 0 0 0 0 0 0 0 0 0 0 0 0 0 0 0 0 0 0 0 0 0 0 0 0 0 0 0 0 0
Wind_Speed
2 2 2 2 2 2 2 3 3 3 3 4 4 4 4 3 3 3 3 3 4 3 3 3 4 3 2 2 2 2 3 3 5 4 2 2 2 2 3 3 3 3 4
1 1 1 1 1 1 2 2 2 2 2 3 3 3 3 3 3 4 4 4 4 4 4 4 4 3 3 3 3 3 3 3 4 6 3 2 3 3 3 3 4 3 4
1 1 1 0 0 1 1 1 1 2 2 2 3 3 4 4 4 4 4 4 5 5 5 5 4 4 4 3 3 4 3 3 3 4 4 2 2 2 3 3 4 3 4
0 1 1 1 1 2 2 1 1 1 2 2 3 3 3 3 3 4 4 4 4 4 4 4 5 5 5 5 4 5 4 3 3 3 4 3 2 2 1 2 4 3 4
0 0 1 1 1 1 1 1 1 1 1 1 1 1 2 2 2 2 3 4 4 4 4 4 5 5 6 5 4 4 4 4 3 3 4 3 3 2 2 2 4 4 4
0 1 1 1 1 1 1 1 1 1 1 1 2 2 2 2 2 3 2 3 4 5 5 4 4 5 6 7 8 7 6 5 5 4 4 5 5 3 2 2 3 3 4
0 1 1 1 1 1 1 1 2 2 1 2 2 2 3 3 3 4 4 3 3 3 4 3 3 4 5 5 7 8 7 8 8 5 6 6 5 4 3 4 4 4 5
1 1 1 1 2 2 1 2 2 2 2 2 2 3 3 3 4 4 5 3 3 3 4 4 4 3 3 4 4 5 5 5 6 5 5 5 4 3 4 4 4 5 5
1 2 2 1 2 2 2 3 2 2 2 2 2 2 3 4 4 5 4 2 3 4 4 3 4 4 5 5 3 4 4 4 5 5 6 6 6 5 3 1 2 3 5
3 3 2 2 2 2 3 3 2 2 2 2 3 2 3 3 4 5 5 2 3 3 3 3 5 5 6 6 4 4 5 4 2 2 3 5 4 5 6 4 4 4 4
3 2 2 2 2 2 2 2 1 1 2 2 2 2 2 3 4 5 5 3 3 3 3 3 4 7 8 8 6 4 6 4 2 2 3 3 2 3 3 4 4 5 5
3 2 2 2 2 1 1 2 1 1 2 2 2 3 2 2 3 5 7 6 5 4 4 3 4 7 8 8 6 5 6 3 1 2 3 3 4 4 3 4 5 5 6
2 2 2 2 2 1 1 2 1 1 2 2 2 3 3 2 3 6 7 7 7 4 4 6 6 7 7 5 6 6 3 2 2 3 4 4 4 3 3 3 4 5 6
2 2 2 2 2 1 1 2 2 2 2 3 3 4 3 3 2 2 3 4 5 5 4 4 6 6 4 3 2 3 2 3 3 4 4 3 2 2 3 3 3 3 4
2 3 2 2 2 2 2 2 3 3 3 4 3 3 3 4 5 6 4 3 3 3 2 1 1 1 2 2 2 2 2 2 3 3 3 3 3 3 4 3 3 3 4
2 3 2 2 2 2 3 4 5 5 6 7 7 5 5 6 7 7 7 7 6 4 2 2 2 2 3 3 3 3 3 3 3 3 3 3 4 4 4 3 3 4 6
3 3 2 2 2 2 3 3 5 5 6 7 8 8 8 8 8 8 7 6 5 3 2 3 3 3 3 3 3 4 4 4 3 3 4 4 4 4 4 4 4 4 6
3 3 3 3 3 3 3 3 3 4 5 4 5 8 8 8 8 7 6 4 3 3 3 3 4 4 4 4 4 4 4 3 3 3 4 4 4 4 4 5 5 5 5
2 2 2 2 3 3 3 3 3 4 4 5 4 4 5 7 7 6 3 2 3 3 3 4 4 4 4 4 4 4 4 4 4 4 4 4 4 4 5 5 5 6 6
2 3 2 2 2 3 3 3 4 4 4 4 4 4 2 3 3 3 3 3 3 3 4 4 4 4 4 4 4 4 4 4 4 4 4 4 4 5 6 6 6 6 6
2 3 3 2 3 3 3 4 4 4 4 4 4 4 5 3 4 4 3 4 4 4 4 4 4 4 4 4 4 4 5 5 4 4 4 4 5 5 5 6 6 6 5
2 2 3 3 3 3 3 4 4 4 5 5 4 4 6 4 4 4 4 4 4 4 4 4 4 4 4 4 5 5 5 6 5 5 5 5 5 5 5 6 6 5 5
2 3 3 3 3 4 4 3 4 4 5 5 4 4 4 4 4 4 5 4 4 4 4 4 5 5 4 4 5 6 6 7 6 6 6 6 6 6 6 6 7 6 6
2 3 3 3 3 3 4 4 4 4 5 5 4 4 4 5 5 5 5 4 4 4 4 5 5 7 8 6 5 6 6 7 6 6 8 7 7 6 6 6 7 7 7
3 3 3 3 3 4 4 4 4 4 5 5 4 4 4 4 5 4 4 4 5 5 6 6 5 6 8 9 8 8 9 11 10 7 7 7 8 8 7 7 7 7 7
3 3 3 3 3 4 4 4 5 5 5 5 5 4 4 4 5 5 4 4 5 5 6 5 6 7 8 8 9 11 11 12 11 11 8 7 8 7 7 6 7 7 6
Wind_Direction
200 198 204 209 205 206 209 213 220 215 201 197 195 192 198 205 205 205 213 206 213 222 219 216 229 227 226 226 220 217 222 219 247 271 258 267 250 271 292 286 269 260 270
205 177 199 209 159 188 234 228 218 217 209 206 196 194 201 205 205 208 215 213 216 221 224 222 229 223 226 222 217 222 225 222 232 263 273 265 257 268 284 286 287 277 273
174 164 189 238 240 244 264 278 242 226 216 208 202 204 208 207 210 213 214 218 221 225 224 222 225 217 227 225 220 223 227 231 231 246 268 264 266 280 294 290 285 277 280
151 167 214 245 247 259 271 280 264 242 224 224 219 214 214 213 216 217 219 223 228 233 233 231 229 222 227 225 224 223 220 224 229 239 258 266 261 266 273 288 296 288 287
108 213 260 281 293 299 299 293 277 243 229 235 232 233 234 224 227 226 228 227 228 236 238 236 234 233 235 229 226 219 214 221 226 235 250 259 257 261 262 267 282 298 287
168 278 321 348 342 323 305 305 294 286 285 257 246 235 238 246 251 240 234 236 234 233 239 241 239 235 238 238 238 232 221 220 227 231 243 248 255 251 256 259 276 300 295
338 328 335 329 314 304 311 313 289 271 263 258 255 248 252 259 254 251 242 238 243 246 245 247 249 245 234 235 238 240 239 238 233 227 237 243 247 240 237 255 257 258 262
344 326 332 326 307 316 316 292 285 271 253 258 264 261 264 274 267 259 250 243 250 255 252 247 248 252 246 241 235 237 242 246 245 239 240 245 244 237 227 240 255 266 272
322 307 301 287 284 292 281 277 271 262 260 261 265 264 263 276 272 267 260 257 257 262 262 258 250 245 251 244 242 244 250 259 262 249 250 257 260 256 244 233 246 265 277
291 290 292 280 266 267 271 277 284 266 261 265 267 266 263 276 280 273 263 258 262 269 267 258 252 252 255 244 234 231 247 257 250 261 261 267 264 256 247 230 224 238 258
309 310 303 287 274 275 280 290 300 280 287 280 276 278 270 270 273 272 266 255 253 260 263 263 258 259 258 249 244 234 248 263 241 244 256 264 269 259 251 241 231 231 240
320 309 301 300 296 292 290 300 311 276 274 283 289 292 284 275 268 273 270 266 266 258 258 261 259 258 256 254 247 248 262 265 235 242 251 255 255 255 254 248 245 245 246
320 310 310 313 308 305 278 279 296 274 260 274 276 281 290 293 281 274 271 268 265 259 263 265 267 264 260 253 249 253 248 223 230 242 251 257 257 257 259 260 257 255 260
305 306 313 310 309 307 279 260 253 252 256 261 264 270 283 291 286 284 274 267 263 261 268 269 265 262 259 264 271 254 234 226 228 241 255 264 270 265 259 254 258 264 272
302 306 308 301 291 285 274 262 258 250 242 247 253 255 265 272 275 280 280 266 259 262 276 281 280 276 254 253 254 250 241 232 239 249 256 263 264 262 266 265 258 254 255
292 298 298 294 291 285 287 294 280 275 277 266 266 269 270 276 291 280 272 270 270 263 239 243 246 245 248 251 251 254 246 245 248 252 254 259 263 263 267 265 260 255 259
262 276 283 283 277 277 279 281 294 298 283 275 276 277 279 286 286 285 278 267 265 248 234 243 246 248 250 249 248 246 249 252 248 245 250 255 261 266 268 267 263 262 265
269 266 267 267 269 266 263 265 270 282 295 291 282 280 284 286 286 285 282 267 254 238 237 243 247 251 252 252 254 257 260 260 251 249 252 254 253 256 262 264 263 264 269
269 269 270 273 274 273 270 267 266 268 273 284 296 295 292 292 287 284 271 231 241 247 245 244 247 249 252 254 255 255 254 256 255 252 251 251 250 252 258 261 264 266 266
262 277 280 272 271 272 269 262 262 264 267 271 273 279 290 283 273 272 251 242 244 252 253 253 254 252 249 250 250 250 253 253 250 248 250 252 250 248 255 259 260 263 263
273 275 271 271 264 263 265 263 262 260 263 267 269 271 271 261 259 261 260 251 244 247 253 254 257 259 254 247 246 247 248 252 250 248 249 249 249 252 255 257 259 259 264
261 262 259 260 268 268 269 268 266 263 263 267 274 276 273 263 254 256 257 257 252 248 248 249 253 251 249 249 245 246 250 252 250 246 248 250 250 252 255 256 257 259 260
260 271 275 272 266 270 272 268 266 265 267 266 265 266 262 256 255 255 257 258 257 257 252 246 251 257 253 250 248 243 244 248 246 241 245 250 250 250 249 252 255 258 258
255 259 267 272 269 266 268 270 268 268 267 269 267 262 259 259 260 261 261 261 258 256 252 248 249 252 254 256 254 251 249 250 244 239 235 241 247 250 249 251 252 254 257
260 259 260 262 262 264 268 271 271 270 269 267 265 267 269 267 264 261 260 259 259 260 259 256 255 253 253 256 258 260 262 260 253 243 235 236 242 245 247 249 251 255 256
267 264 262 260 258 257 259 265 269 270 269 268 265 264 265 267 269 268 263 259 261 264 266 264 259 259 261 263 262 265 266 265 257 244 233 234 238 242 244 248 250 252 252